Regional Weather Roundup
Issued by NWS

Home | Current Version | Previous Version | Text Only | Print | Product List | Glossary Off
Versions: 1 2 3 4 5 6 7 8 9 10 11 12 13 14 15 16 17 18 19 20 21 22 23 24 25 26 27 28 29 30 31 32 33 34 35 36 37 38 39 40 41 42 43 44 45 46 47 48 49 50

000
ASUS45 KBOU 251307
RWRCO

WEATHER ROUNDUP FOR COLORADO
NATIONAL WEATHER SERVICE DENVER/BOULDER CO
600 AM MST SUN JAN 25 2015

NOTE: "FAIR" INDICATES FEW OR NO CLOUDS BELOW 12000 FEET WITH NO
SIGNIFICANT WEATHER AND/OR OBSTRUCTIONS TO VISIBILITY.

COZ001>005-013-030-031-251400-
...NORTHWEST COLORADO...

CITY           SKY/WX    TMP DP  RH WIND       PRES   REMARKS
CRAIG            N/A    N/A N/A N/A MISG      30.36R
HAYDEN         CLOUDY    25  18  74 E6        30.34R WCI  18
MEEKER         MOCLDY    12   8  84 NE3       30.37F
MOUNT WERNER   NOT AVBL
STEAMBOAT SPGS CLOUDY    28  20  72 E3        30.34R
WALDEN         PTCLDY    21  18  86 SE6       30.28R WCI  14
$$

COZ006>008-011-251400-
...WEST CENTRAL VALLEYS...

CITY           SKY/WX    TMP DP  RH WIND       PRES   REMARKS
GRAND JUNCTION PTCLDY    23  17  78 SE12      30.37S WCI  12
MONTROSE       PTCLDY    18  12  77 S6        30.40S WCI  10
EAGLE          CLOUDY    18  16  93 SE7       30.40R WCI   8
RIFLE          CLOUDY    22  16  78 CALM      30.40S
DELTA          PTCLDY    21  15  76 CALM      30.40F
NUCLA          PTCLDY    23  16  74 CALM      30.37S
$$

COZ017>023-064>068-251400-
...SOUTHWEST COLORADO...

CITY           SKY/WX    TMP DP  RH WIND       PRES   REMARKS
DURANGO        PTCLDY    18  15  88 NE6       30.27S WCI  10
CORTEZ         CLEAR     18  14  84 E8        30.28F WCI   8
PAGOSA SPRINGS PTCLDY    15  14  96 NW3       30.27S
TELLURIDE      CLEAR     25  14  63 SE5       30.37S WCI  19
WOLF CREEK PAS NOT AVBL
$$

COZ009-010-012-014-032>034-037-058>063-251400-
...CENTRAL COLORADO...

CITY           SKY/WX    TMP DP  RH WIND       PRES   REMARKS
ASPEN          MOCLDY    23  16  74 SW9       30.37R WCI  13
BUENA VISTA    PTCLDY    36  19  48 N6        30.27R
COPPER MTN     CLOUDY    23  18  80 W31       30.33R WCI   5
BERTHOUD PASS  NOT AVBL
COTTONWOOD PAS PTCLDY    32  18  55 NW12G20   30.27R WCI  23
GUNNISON       MOCLDY    -8 -22  49 CALM      30.42F
KREMMLING      CLOUDY    32  21  64 SW10      30.33R WCI  24
LEADVILLE      CLOUDY    24  17  74 N10       30.33R WCI  14
MONARCH PASS   FOG       14  12  92 MISG      30.40R VSB<1/4
SALIDA         PTCLDY    37  19  47 W9G17     30.34S
SUNLIGHT       CLOUDY    28  25  86 W3          N/A
WILKERSON PASS PTCLDY    27  12  54 NW16G39   30.25R WCI  14
$$

COZ069>075-251400-
...SAN LUIS VALLEY/SANGRE DE CRISTO MOUNTAINS...

CITY           SKY/WX    TMP DP  RH WIND       PRES   REMARKS
ALAMOSA        MOCLDY     6   1  80 W6        30.29R WCI  -4
LA VETA PASS   NOT AVBL
SAGUACHE       MOCLDY    32  21  64 N14       30.29S WCI  22
$$

COZ035-036-038>040-251400-
...NORTHERN COLORADO FRONT RANGE...

CITY           SKY/WX    TMP DP  RH WIND       PRES   REMARKS
DENVER INTL AP PTCLDY    29  25  85 S13       30.13F WCI  19
DMNS CITY PARK   N/A     36  23  59 W2        30.14S
AURORA         PTCLDY    35  23  60 W6        30.15R WCI  30
FRONT RANGE AP NOT AVBL
ERIE MUNI ARPT CLEAR     26  24  96 S5        30.14S WCI  20
BOULDER MUN AP CLEAR     32  28  86 CALM      30.14S
CENTENNIAL     PTCLDY    33  23  66 SW6       30.15R WCI  28
BROOMFIELD     PTCLDY    34  27  75 NW3       30.15R
FORT COLLINS   CLEAR     28  23  80 SW8       30.15S WCI  20
LONGMONT       CLEAR     26  23  87 W5        30.17R WCI  21
$$

COZ041-046-047-076>085-087-088-251400-
...PIKES PEAK/PALMER DIVIDE AND SOUTHERN FOOTHILLS...

CITY           SKY/WX    TMP DP  RH WIND       PRES   REMARKS
COLO. SPRINGS  CLEAR     28  24  85 VRB3      30.18R
A. F. ACADEMY  CLEAR     27  20  74 CALM      30.17R
ELLICOTT       CLEAR    N/A N/A N/A W9        30.16R
FALCON         CLEAR     32  21  63 W8        30.17R WCI  25
FORT CARSON    CLEAR     28  23  83 SW6       30.16R WCI  21
LIMON          CLEAR     30  25  81 N12       30.14R WCI  20
MONUMENT HILL  CLEAR     27  21  80 W8        30.16R WCI  18
TRINIDAD       CLEAR     28  24  85 S10       30.20S WCI  19
$$

COZ042>045-048>051-090-091-251400-
...NORTHEAST COLORADO...

CITY           SKY/WX    TMP DP  RH WIND       PRES   REMARKS
GREELEY ARPT   CLEAR     25  18  74 NW6       30.14R WCI  18
AKRON          CLEAR     31  26  82 N13       30.10R WCI  21
BURLINGTON     CLEAR     33  25  72 NW13      30.10R WCI  24
WRAY           CLEAR     38  26  63 NW16G23   30.09R
STERLING       CLEAR     36  30  80 N9        30.11R
HOLYOKE        CLEAR     37  27  65 NW17G26   30.08R
FORT MORGAN    CLEAR     32  26  80 W7        30.14R WCI  25
$$

COZ086-089-092>099-251400-
...SOUTHEAST COLORADO...

CITY           SKY/WX    TMP DP  RH WIND       PRES   REMARKS
PUEBLO         CLEAR     25  22  88 NW5       30.18R WCI  19
LA JUNTA       CLEAR     30  25  81 W10       30.17R WCI  21
LAMAR          CLEAR     36  27  69 W9        30.13R
SPRINGFIELD      N/A     33  26  75 NW17      30.13R WCI  22
$$


USA.gov is the U.S. government's official web portal to all federal, state and local government web resources and services.